Location: Pic du Midi - T1M
(42.9366°N, 0.1426°E)
Time: 13:45:59
(UTC+00:00)

ISS - Visible Passes

Search period start: 24 January 2019 00:00
Search period end: 03 February 2019 00:00
Orbit: 404 x 410 km, 51.6° (Epoch: 24 January)

Date Brightness Start Highest point End Pass type
(mag) Time Alt. Az. Time Alt. Az. Time Alt. Az.
24 Jan -3.9 18:20:15 10° SW 18:23:31 78° SE 18:24:47 34° ENE visible
25 Jan -3.1 17:29:06 10° SSW 17:32:13 42° SE 17:35:22 10° ENE visible
25 Jan -2.3 19:05:49 10° W 19:08:24 31° NW 19:08:24 31° NW visible
26 Jan -3.1 18:14:09 10° WSW 18:17:20 48° NNW 18:19:13 21° NE visible
27 Jan -1.9 19:00:10 10° WNW 19:02:42 22° NNW 19:02:42 22° NNW visible
28 Jan -2.3 18:08:20 10° W 18:11:14 28° NNW 18:13:26 14° NE visible
29 Jan -1.7 18:54:28 10° NW 18:56:50 18° N 18:56:50 18° N visible
30 Jan -1.9 18:02:38 10° WNW 18:05:11 20° N 18:07:30 11° NE visible
30 Jan -0.6 19:40:04 10° NW 19:40:12 11° NW 19:40:12 11° NW visible
31 Jan -1.8 18:48:31 10° NW 18:50:52 18° N 18:50:52 18° N visible
01 Feb -1.8 17:56:49 10° NW 17:59:09 18° N 18:01:30 10° NE visible
01 Feb -0.9 19:33:39 10° NW 19:34:14 13° NW 19:34:14 13° NW visible
02 Feb -2.1 18:42:14 10° NW 18:44:49 21° NNE 18:44:55 21° NNE visible
